Pagina principale
METAR-TAF:

METAR-TAF

Aeroporti :

Pécs, Ungheria

latitudine: 46-06N, longitudine: 018-14E, altezza: 201 m

Osservazione

Il bollettino è stato emesso 1 ora e 0 minuti fa, alle 15:45 UTC
Vento 4 kt da sud/sud-est
Temperature 31°C
Umidità 43%
Pressione 1016 hPa
Visibilità 10 km o più
nessuna nube inferiore a 1500 m e nessun cumulonembo

METAR: LHPP 191545Z 16004KT CAVOK 31/17 Q1016

Ora: 18:45 (16:45 UTC)

Previsione

Il bollettino è stato emesso 2 ore e 30 minuti fa, alle 14:15 UTC
Previsione valida dal 19 alle 15 UTC al 19 alle 24 UTC
Vento 2 kt da direzioni variabili
Visibilità 10 km o più
nessuna nube inferiore a 1500 m e nessun cumulonembo

TAF: LHPP 191415Z 1915/1924 VRB02KT CAVOK

Osservazioni e previsioni meteorologiche di più di 4000 aeroporti (messaggi METAR e TAF).

Le stazioni disponibili sono rappresentate dai dischi gialli e rossi sulla carta.

Puntare il mouse per vedere il nome della stazione.

Clicca sopra per visualizzare le osservazioni e previsioni meteorologiche.

Per cambiare la mappa : fare clic sui pulsanti verdi con una croce nera per ingrandire, il pulsante verde con un trattino per diminuire, o sulla freccia verde per le mappe adiacenti.


METAR-TAF: